SCP
0 0 0 0 0 0 1 1 0 0 0 0 0 0 0 0 0 0 0 0 0 0 0 0 0 0 0 0 0 0 0 0 0 0 0 0 0 0 0 0 0 0 0
0 0 0 0 0 0 0 0 0 0 0 0 0 0 0 0 0 0 0 0 0 0 1 1 0 0 0 0 0 0 0 0 0 0 0 0 0 0 0 0 0 0 0
0 0 0 0 0 0 0 0 0 0 0 0 0 0 0 0 0 0 0 0 0 1 1 1 0 -0 0 0 0 0 0 0 0 0 0 0 0 0 0 0 0 0 0
0 0 0 0 0 0 0 0 0 0 0 0 0 0 0 0 0 0 0 0 0 0 1 1 1 1 0 1 0 0 0 0 0 0 0 0 0 0 0 0 0 0 0
0 0 0 0 0 0 0 0 0 0 0 0 0 0 0 0 0 0 0 0 0 0 1 2 1 0 1 1 1 0 0 0 0 0 0 0 0 0 0 0 0 0 0
0 0 0 0 0 0 0 0 0 0 0 0 0 0 0 0 0 0 -0 0 0 0 0 0 0 1 1 1 1 1 1 1 0 0 0 0 0 0 0 0 0 0 0
0 0 0 0 0 0 0 0 0 0 0 0 0 0 0 0 0 0 0 0 0 0 0 0 0 0 0 0 1 1 0 0 0 0 0 0 0 0 0 0 0 0 0
0 0 0 0 0 0 0 0 0 0 0 0 0 0 0 0 0 0 0 0 0 0 0 0 0 0 0 0 0 0 0 0 0 0 0 0 0 0 0 0 0 0 0
0 -0 -0 -0 0 0 0 0 0 0 0 0 0 0 0 0 -0 0 0 0 0 0 0 0 0 0 0 0 0 0 0 0 0 0 0 0 0 0 0 0 0 0 0
0 -0 -0 0 -0 0 0 0 0 0 0 0 0 0 0 0 -0 -0 0 0 0 0 0 0 0 0 0 0 0 0 0 0 0 0 0 0 0 0 0 0 0 0 0
0 0 -0 0 0 0 0 0 0 0 0 0 0 0 0 0 0 0 -0 0 0 0 0 0 0 0 0 0 0 0 0 0 0 0 0 0 0 0 0 0 0 0 0
0 0 0 0 0 0 0 0 0 0 0 0 0 0 0 0 0 0 0 0 0 0 0 0 0 0 0 0 0 0 0 0 0 0 0 0 0 0 0 0 0 0 0
0 0 0 0 0 0 0 0 0 0 0 0 0 0 0 0 0 0 0 0 0 0 0 0 0 0 0 0 0 0 0 0 0 0 0 0 0 0 0 0 0 0 0
0 0 0 0 0 0 0 0 0 0 0 0 0 0 0 0 0 0 0 0 0 0 0 0 0 0 0 0 0 0 0 0 0 0 0 0 0 0 0 0 0 0 0
0 0 0 0 0 0 0 0 0 0 0 0 0 0 0 0 0 0 0 0 0 0 0 0 0 0 0 0 0 0 0 0 0 0 0 0 0 0 0 0 0 0 0
0 0 0 0 0 0 0 0 0 0 0 0 0 -0 0 0 0 0 0 0 0 0 0 0 0 0 0 0 0 0 0 0 0 0 0 0 0 0 0 0 0 0 0
0 0 0 0 0 0 0 0 0 0 0 0 0 0 0 0 0 0 0 0 0 0 0 0 0 0 0 0 0 0 0 0 0 0 0 0 0 0 0 0 0 0 0
0 0 0 0 0 0 0 0 0 0 0 0 0 0 0 0 0 0 0 0 0 0 0 0 0 0 0 0 0 0 0 0 0 0 0 0 0 0 0 0 0 0 0
0 0 0 0 0 0 0 0 0 0 0 0 0 0 0 0 0 0 0 0 0 0 0 0 0 0 0 0 0 0 0 0 0 0 0 0 0 0 0 0 0 0 0
0 0 0 0 0 0 0 0 0 0 0 0 0 0 0 0 0 0 0 0 0 0 0 0 0 0 0 0 0 0 0 0 0 0 0 0 0 0 0 0 0 -0 0
0 0 0 0 0 0 0 0 0 0 0 0 0 0 0 0 0 0 0 0 0 0 0 0 0 0 0 0 0 0 0 0 0 0 0 0 0 0 0 0 0 0 0
0 0 0 0 0 0 0 0 0 0 0 0 0 0 0 0 0 0 0 0 0 0 0 0 0 0 0 0 0 0 0 0 0 0 0 0 0 0 0 0 0 0 -0
-0 0 0 0 0 0 0 0 0 0 0 0 0 0 0 0 0 0 0 0 0 0 0 0 0 0 0 0 0 0 0 0 0 0 0 0 0 0 0 0 -0 -0 -0
0 0 0 -0 0 0 0 0 0 0 0 0 0 0 0 0 0 0 0 0 0 0 0 0 0 0 0 0 0 0 0 0 0 0 0 -0 -0 0 0 0 -0 -0 -0
-0 -0 -0 0 0 0 0 0 0 0 0 0 0 0 0 0 0 0 0 0 0 0 0 0 0 0 0 0 0 0 0 0 0 -0 -0 0 0 -0 -0 -0 0 -0 0
0 0 -0 -0 -0 -0 -0 0 0 0 0 0 0 0 0 0 0 0 0 0 0 0 0 0 0 0 0 0 -0 0 0 0 0 -0 -0 -0 -0 -0 0 0 -0 -0 -0
Wind_Speed_500mb
31 27 29 33 28 26 26 23 19 12 10 21 22 17 16 11 17 20 27 27 31 45 30 39 32 35 29 26 26 28 28 32 34 37 39 42 41 38 40 38 42 38 35
34 33 34 34 29 27 27 27 24 16 19 19 17 17 13 15 19 19 22 25 26 32 38 45 40 36 30 26 30 25 28 30 34 35 40 47 47 52 48 43 44 40 37
38 36 35 30 27 26 26 22 16 15 19 22 21 18 16 12 12 21 20 12 9 17 19 32 35 20 22 28 28 29 28 30 30 35 42 51 54 57 34 38 21 22 29
30 25 29 28 25 23 24 21 21 20 15 18 20 20 19 17 20 25 29 22 14 15 21 21 28 22 9 22 31 26 24 23 27 28 29 35 59 21 24 17 26 29 31
31 30 28 22 16 16 14 6 4 8 11 11 13 12 17 17 18 25 24 24 21 21 20 19 23 23 32 38 28 25 25 25 23 18 21 18 12 21 18 26 35 35 32
17 14 20 23 18 12 7 6 17 26 29 28 27 25 23 22 21 25 25 20 12 12 6 5 7 15 23 30 14 19 22 24 23 21 17 20 26 17 26 24 23 28 33
22 22 19 20 18 13 9 26 33 33 32 31 40 40 37 24 20 9 21 21 13 11 13 15 18 17 22 21 20 24 24 20 18 11 11 28 19 22 15 17 21 30 36
41 30 27 28 30 22 29 30 32 35 32 30 35 40 30 44 9 6 28 16 21 16 13 14 14 18 21 17 19 22 22 15 4 7 12 17 20 20 18 20 28 31 31
43 51 55 45 51 50 58 43 35 33 40 46 37 21 16 12 36 25 18 30 20 10 15 1 1 7 12 18 18 15 10 5 5 6 13 16 16 21 22 24 30 30 29
44 42 44 46 47 49 49 34 42 45 41 48 39 32 24 31 24 17 19 20 23 10 12 10 14 15 18 18 12 5 9 7 6 8 5 13 16 20 22 30 36 36 36
54 50 49 33 25 26 30 27 31 39 40 43 41 36 34 35 42 38 16 10 17 15 12 14 16 18 15 11 5 3 3 7 11 11 12 12 16 23 29 31 33 32 34
55 55 46 40 44 41 31 27 26 32 41 44 45 40 33 33 34 31 23 11 20 18 10 12 15 14 8 6 3 2 8 10 11 12 14 18 24 29 30 28 32 29 28
51 55 54 48 43 53 56 64 54 44 40 40 41 41 44 38 34 32 29 20 16 14 14 16 11 9 7 2 2 4 10 13 15 14 21 26 27 27 25 26 24 28 28
57 57 58 61 59 55 57 58 61 55 54 53 56 54 48 46 39 35 33 24 22 17 14 14 9 8 9 8 3 2 10 18 20 21 25 23 21 20 22 23 25 27 28
59 53 56 58 57 53 55 60 65 74 77 79 72 68 64 60 55 48 46 44 33 28 23 18 14 16 16 17 9 5 10 14 21 17 15 13 15 17 23 26 27 27 25
47 52 58 62 65 65 60 60 69 73 80 90 92 85 81 74 64 59 58 46 41 36 24 17 18 14 22 21 16 12 14 12 8 9 1 7 15 19 22 23 22 23 20
62 58 55 57 56 52 48 50 49 43 44 44 45 57 65 75 78 59 50 47 47 41 33 20 15 10 17 22 21 14 10 10 6 1 6 10 13 17 20 22 22 24 23
50 52 53 53 51 47 47 49 46 43 39 41 40 37 43 45 54 59 46 48 45 46 41 21 17 23 25 18 23 17 11 11 7 7 8 11 17 23 25 26 28 32 20
38 39 45 51 53 56 56 48 46 42 42 37 34 33 31 32 43 52 55 48 48 46 39 26 18 23 27 25 28 25 16 11 13 9 8 11 20 27 27 30 30 32 29
39 40 42 39 42 46 46 45 43 43 40 37 35 33 35 31 33 42 52 49 54 45 35 26 19 22 22 31 37 31 24 20 21 14 11 14 24 29 27 28 30 32 30
42 35 37 36 40 41 40 38 41 45 44 39 38 37 30 30 28 20 44 48 55 49 37 26 19 22 26 38 39 38 32 28 24 17 15 18 22 25 31 32 34 34 34
42 39 36 35 33 33 34 33 35 40 45 44 41 35 29 21 18 35 38 58 44 42 39 26 27 25 29 23 31 43 40 38 29 24 18 16 18 22 28 30 36 37 39
36 36 31 30 29 28 30 31 31 35 39 39 41 44 31 26 20 29 33 49 40 34 28 24 20 22 28 25 29 43 47 37 32 28 21 17 20 23 29 37 42 44 41
36 36 34 35 33 31 31 29 28 29 33 35 34 39 37 32 21 30 37 27 34 22 23 27 23 22 11 12 25 38 34 32 27 27 24 21 25 19 25 35 47 47 46
37 37 37 33 33 32 27 23 22 24 26 30 32 32 31 25 26 34 42 38 35 15 21 27 28 26 20 10 16 27 42 42 39 31 20 16 19 20 19 29 40 45 50
35 33 37 37 37 34 23 21 22 21 18 22 25 29 33 28 22 22 29 31 29 27 26 32 35 36 26 13 5 20 43 45 41 32 22 14 17 11 16 21 29 38 45
Wind_Direction_500mb
262 260 262 256 261 263 265 260 257 245 251 285 278 279 286 305 317 328 317 303 297 301 293 274 271 281 281 308 302 307 302 302 295 292 292 290 290 289 281 285 286 288 294
267 259 262 263 256 257 260 266 270 259 272 290 284 282 279 300 319 310 309 309 289 273 281 280 271 278 282 290 295 312 302 294 291 291 288 291 288 275 273 273 280 289 286
280 267 261 250 248 252 258 257 244 255 269 275 284 289 268 274 307 322 312 346 335 311 318 281 272 289 283 279 285 294 294 295 287 282 282 290 293 263 261 297 293 276 276
287 273 262 258 263 258 246 233 240 256 266 269 273 279 278 303 302 292 291 291 281 291 284 273 251 270 274 314 304 287 287 289 293 288 294 297 258 273 282 216 243 266 271
300 291 275 254 249 241 234 242 275 301 315 299 296 288 282 299 321 314 299 299 300 312 301 265 274 280 284 296 287 283 298 304 301 306 293 289 230 292 267 239 268 273 261
246 256 274 259 249 240 248 346 340 332 329 324 315 310 309 311 316 316 335 354 338 315 324 352 325 311 319 305 267 292 301 296 297 290 270 211 229 266 283 265 245 254 270
220 235 231 236 242 247 245 325 321 329 330 324 321 318 314 326 329 342 15 12 14 341 319 308 304 296 302 297 286 289 292 296 284 264 217 194 256 279 243 222 257 275 283
266 267 260 235 222 255 282 323 329 328 319 318 317 324 321 316 323 255 336 326 334 337 333 303 287 290 307 298 292 295 300 296 304 126 206 247 264 255 245 273 289 295 299
296 297 292 291 283 283 290 300 297 292 304 308 296 292 307 303 304 317 305 301 315 307 330 183 41 321 323 314 300 294 305 47 79 225 252 258 258 264 274 292 300 303 295
299 306 301 295 294 292 278 277 264 274 280 286 292 284 270 278 303 314 310 287 307 274 296 297 318 316 323 326 322 52 115 96 52 8 318 280 273 268 287 296 300 305 300
301 301 302 276 275 282 296 282 253 252 258 266 269 282 283 267 277 292 284 259 263 290 269 278 296 308 315 335 334 126 26 342 331 318 304 290 283 290 297 301 297 299 298
291 289 293 288 284 286 279 280 270 263 262 264 265 270 279 274 274 274 284 263 271 282 275 280 285 286 305 326 92 314 329 323 328 306 308 307 304 299 293 295 298 304 305
281 283 283 281 283 283 283 286 285 280 275 272 278 271 264 269 271 272 268 267 238 250 261 287 279 268 261 220 83 339 309 313 302 297 302 301 301 300 305 300 309 309 308
277 275 272 270 270 267 282 279 272 279 281 275 269 273 273 269 266 264 261 264 242 233 227 236 252 223 224 260 126 285 303 291 295 298 309 311 307 315 317 325 319 317 309
283 273 269 267 268 271 274 275 273 272 273 273 270 269 269 267 267 266 259 256 260 245 237 239 221 209 220 230 236 247 278 291 288 294 304 317 321 331 330 335 338 336 331
277 278 277 279 279 280 279 276 272 270 269 263 263 268 267 266 266 268 260 253 243 245 229 223 225 229 222 228 233 251 264 285 289 287 340 3 353 353 353 349 344 341 338
278 275 271 273 277 278 272 277 281 276 268 266 264 263 263 263 265 257 256 242 237 232 228 203 207 212 223 236 233 245 283 269 267 215 71 29 20 14 5 8 0 349 341
277 270 272 274 276 275 277 276 276 272 273 269 270 271 264 261 251 249 252 236 233 225 224 196 205 202 214 230 242 241 247 258 223 137 77 40 32 27 19 16 11 4 360
293 285 276 275 276 271 271 268 274 273 267 273 270 263 268 265 258 253 249 237 230 225 227 216 211 214 208 226 229 226 238 222 185 145 108 55 40 32 23 28 20 17 10
301 293 289 279 273 270 267 266 261 266 265 266 263 258 264 272 265 247 239 231 223 221 209 209 207 196 206 217 224 224 216 201 183 161 124 74 45 23 24 27 28 25 18
300 291 291 281 279 268 265 265 259 257 260 260 260 260 261 254 246 239 226 220 210 203 203 211 200 201 207 212 221 221 214 198 182 177 127 77 44 32 45 43 39 32 23
297 294 286 277 277 266 270 266 262 261 262 258 253 246 248 251 262 231 194 198 185 192 195 178 193 201 213 222 230 229 212 188 176 166 127 83 61 56 51 43 40 34 22
303 298 292 288 281 276 273 268 258 257 250 251 246 236 247 247 253 222 219 172 182 188 191 180 200 216 218 225 233 232 220 200 185 162 138 100 98 68 50 43 41 32 26
300 295 289 285 285 279 276 271 259 249 243 244 234 230 241 235 239 209 205 205 190 175 196 211 234 237 227 221 263 243 219 184 178 155 138 115 101 78 51 44 41 32 28
301 294 296 289 284 279 271 256 239 232 235 235 224 208 210 212 216 189 196 205 207 194 197 205 219 218 232 241 274 225 186 171 161 162 148 147 112 100 63 54 44 31 28
305 300 295 289 281 278 268 233 223 213 231 210 191 199 202 196 175 168 175 187 189 200 211 208 209 193 214 255 241 189 173 169 159 162 164 181 127 111 75 56 48 32 26
Wind_Speed_850mb
31 27 29 33 28 26 26 23 19 12 10 21 22 17 16 11 17 20 27 27 31 45 30 39 32 35 29 26 26 28 28 32 34 37 39 42 41 38 40 38 42 38 35
34 33 34 34 29 27 27 27 24 16 19 19 17 17 13 15 19 19 22 25 26 32 38 45 40 36 30 26 30 25 28 30 34 35 40 47 47 52 48 43 44 40 37
38 36 35 30 27 26 26 22 16 15 19 22 21 18 16 12 12 21 20 12 9 17 19 32 35 20 22 28 28 29 28 30 30 35 42 51 54 57 34 38 21 22 29
30 25 29 28 25 23 24 21 21 20 15 18 20 20 19 17 20 25 29 22 14 15 21 21 28 22 9 22 31 26 24 23 27 28 29 35 59 21 24 17 26 29 31
31 30 28 22 16 16 14 6 4 8 11 11 13 12 17 17 18 25 24 24 21 21 20 19 23 23 32 38 28 25 25 25 23 18 21 18 12 21 18 26 35 35 32
17 14 20 23 18 12 7 6 17 26 29 28 27 25 23 22 21 25 25 20 12 12 6 5 7 15 23 30 14 19 22 24 23 21 17 20 26 17 26 24 23 28 33
22 22 19 20 18 13 9 26 33 33 32 31 40 40 37 24 20 9 21 21 13 11 13 15 18 17 22 21 20 24 24 20 18 11 11 28 19 22 15 17 21 30 36
41 30 27 28 30 22 29 30 32 35 32 30 35 40 30 44 9 6 28 16 21 16 13 14 14 18 21 17 19 22 22 15 4 7 12 17 20 20 18 20 28 31 31
43 51 55 45 51 50 58 43 35 33 40 46 37 21 16 12 36 25 18 30 20 10 15 1 1 7 12 18 18 15 10 5 5 6 13 16 16 21 22 24 30 30 29
44 42 44 46 47 49 49 34 42 45 41 48 39 32 24 31 24 17 19 20 23 10 12 10 14 15 18 18 12 5 9 7 6 8 5 13 16 20 22 30 36 36 36
54 50 49 33 25 26 30 27 31 39 40 43 41 36 34 35 42 38 16 10 17 15 12 14 16 18 15 11 5 3 3 7 11 11 12 12 16 23 29 31 33 32 34
55 55 46 40 44 41 31 27 26 32 41 44 45 40 33 33 34 31 23 11 20 18 10 12 15 14 8 6 3 2 8 10 11 12 14 18 24 29 30 28 32 29 28
51 55 54 48 43 53 56 64 54 44 40 40 41 41 44 38 34 32 29 20 16 14 14 16 11 9 7 2 2 4 10 13 15 14 21 26 27 27 25 26 24 28 28
57 57 58 61 59 55 57 58 61 55 54 53 56 54 48 46 39 35 33 24 22 17 14 14 9 8 9 8 3 2 10 18 20 21 25 23 21 20 22 23 25 27 28
59 53 56 58 57 53 55 60 65 74 77 79 72 68 64 60 55 48 46 44 33 28 23 18 14 16 16 17 9 5 10 14 21 17 15 13 15 17 23 26 27 27 25
47 52 58 62 65 65 60 60 69 73 80 90 92 85 81 74 64 59 58 46 41 36 24 17 18 14 22 21 16 12 14 12 8 9 1 7 15 19 22 23 22 23 20
62 58 55 57 56 52 48 50 49 43 44 44 45 57 65 75 78 59 50 47 47 41 33 20 15 10 17 22 21 14 10 10 6 1 6 10 13 17 20 22 22 24 23
50 52 53 53 51 47 47 49 46 43 39 41 40 37 43 45 54 59 46 48 45 46 41 21 17 23 25 18 23 17 11 11 7 7 8 11 17 23 25 26 28 32 20
38 39 45 51 53 56 56 48 46 42 42 37 34 33 31 32 43 52 55 48 48 46 39 26 18 23 27 25 28 25 16 11 13 9 8 11 20 27 27 30 30 32 29
39 40 42 39 42 46 46 45 43 43 40 37 35 33 35 31 33 42 52 49 54 45 35 26 19 22 22 31 37 31 24 20 21 14 11 14 24 29 27 28 30 32 30
42 35 37 36 40 41 40 38 41 45 44 39 38 37 30 30 28 20 44 48 55 49 37 26 19 22 26 38 39 38 32 28 24 17 15 18 22 25 31 32 34 34 34
42 39 36 35 33 33 34 33 35 40 45 44 41 35 29 21 18 35 38 58 44 42 39 26 27 25 29 23 31 43 40 38 29 24 18 16 18 22 28 30 36 37 39
36 36 31 30 29 28 30 31 31 35 39 39 41 44 31 26 20 29 33 49 40 34 28 24 20 22 28 25 29 43 47 37 32 28 21 17 20 23 29 37 42 44 41
36 36 34 35 33 31 31 29 28 29 33 35 34 39 37 32 21 30 37 27 34 22 23 27 23 22 11 12 25 38 34 32 27 27 24 21 25 19 25 35 47 47 46
37 37 37 33 33 32 27 23 22 24 26 30 32 32 31 25 26 34 42 38 35 15 21 27 28 26 20 10 16 27 42 42 39 31 20 16 19 20 19 29 40 45 50
35 33 37 37 37 34 23 21 22 21 18 22 25 29 33 28 22 22 29 31 29 27 26 32 35 36 26 13 5 20 43 45 41 32 22 14 17 11 16 21 29 38 45
Wind_Direction_850mb
262 260 262 256 261 263 265 260 257 245 251 285 278 279 286 305 317 328 317 303 297 301 293 274 271 281 281 308 302 307 302 302 295 292 292 290 290 289 281 285 286 288 294
267 259 262 263 256 257 260 266 270 259 272 290 284 282 279 300 319 310 309 309 289 273 281 280 271 278 282 290 295 312 302 294 291 291 288 291 288 275 273 273 280 289 286
280 267 261 250 248 252 258 257 244 255 269 275 284 289 268 274 307 322 312 346 335 311 318 281 272 289 283 279 285 294 294 295 287 282 282 290 293 263 261 297 293 276 276
287 273 262 258 263 258 246 233 240 256 266 269 273 279 278 303 302 292 291 291 281 291 284 273 251 270 274 314 304 287 287 289 293 288 294 297 258 273 282 216 243 266 271
300 291 275 254 249 241 234 242 275 301 315 299 296 288 282 299 321 314 299 299 300 312 301 265 274 280 284 296 287 283 298 304 301 306 293 289 230 292 267 239 268 273 261
246 256 274 259 249 240 248 346 340 332 329 324 315 310 309 311 316 316 335 354 338 315 324 352 325 311 319 305 267 292 301 296 297 290 270 211 229 266 283 265 245 254 270
220 235 231 236 242 247 245 325 321 329 330 324 321 318 314 326 329 342 15 12 14 341 319 308 304 296 302 297 286 289 292 296 284 264 217 194 256 279 243 222 257 275 283
266 267 260 235 222 255 282 323 329 328 319 318 317 324 321 316 323 255 336 326 334 337 333 303 287 290 307 298 292 295 300 296 304 126 206 247 264 255 245 273 289 295 299
296 297 292 291 283 283 290 300 297 292 304 308 296 292 307 303 304 317 305 301 315 307 330 183 41 321 323 314 300 294 305 47 79 225 252 258 258 264 274 292 300 303 295
299 306 301 295 294 292 278 277 264 274 280 286 292 284 270 278 303 314 310 287 307 274 296 297 318 316 323 326 322 52 115 96 52 8 318 280 273 268 287 296 300 305 300
301 301 302 276 275 282 296 282 253 252 258 266 269 282 283 267 277 292 284 259 263 290 269 278 296 308 315 335 334 126 26 342 331 318 304 290 283 290 297 301 297 299 298
291 289 293 288 284 286 279 280 270 263 262 264 265 270 279 274 274 274 284 263 271 282 275 280 285 286 305 326 92 314 329 323 328 306 308 307 304 299 293 295 298 304 305
281 283 283 281 283 283 283 286 285 280 275 272 278 271 264 269 271 272 268 267 238 250 261 287 279 268 261 220 83 339 309 313 302 297 302 301 301 300 305 300 309 309 308
277 275 272 270 270 267 282 279 272 279 281 275 269 273 273 269 266 264 261 264 242 233 227 236 252 223 224 260 126 285 303 291 295 298 309 311 307 315 317 325 319 317 309
283 273 269 267 268 271 274 275 273 272 273 273 270 269 269 267 267 266 259 256 260 245 237 239 221 209 220 230 236 247 278 291 288 294 304 317 321 331 330 335 338 336 331
277 278 277 279 279 280 279 276 272 270 269 263 263 268 267 266 266 268 260 253 243 245 229 223 225 229 222 228 233 251 264 285 289 287 340 3 353 353 353 349 344 341 338
278 275 271 273 277 278 272 277 281 276 268 266 264 263 263 263 265 257 256 242 237 232 228 203 207 212 223 236 233 245 283 269 267 215 71 29 20 14 5 8 0 349 341
277 270 272 274 276 275 277 276 276 272 273 269 270 271 264 261 251 249 252 236 233 225 224 196 205 202 214 230 242 241 247 258 223 137 77 40 32 27 19 16 11 4 360
293 285 276 275 276 271 271 268 274 273 267 273 270 263 268 265 258 253 249 237 230 225 227 216 211 214 208 226 229 226 238 222 185 145 108 55 40 32 23 28 20 17 10
301 293 289 279 273 270 267 266 261 266 265 266 263 258 264 272 265 247 239 231 223 221 209 209 207 196 206 217 224 224 216 201 183 161 124 74 45 23 24 27 28 25 18
300 291 291 281 279 268 265 265 259 257 260 260 260 260 261 254 246 239 226 220 210 203 203 211 200 201 207 212 221 221 214 198 182 177 127 77 44 32 45 43 39 32 23
297 294 286 277 277 266 270 266 262 261 262 258 253 246 248 251 262 231 194 198 185 192 195 178 193 201 213 222 230 229 212 188 176 166 127 83 61 56 51 43 40 34 22
303 298 292 288 281 276 273 268 258 257 250 251 246 236 247 247 253 222 219 172 182 188 191 180 200 216 218 225 233 232 220 200 185 162 138 100 98 68 50 43 41 32 26
300 295 289 285 285 279 276 271 259 249 243 244 234 230 241 235 239 209 205 205 190 175 196 211 234 237 227 221 263 243 219 184 178 155 138 115 101 78 51 44 41 32 28
301 294 296 289 284 279 271 256 239 232 235 235 224 208 210 212 216 189 196 205 207 194 197 205 219 218 232 241 274 225 186 171 161 162 148 147 112 100 63 54 44 31 28
305 300 295 289 281 278 268 233 223 213 231 210 191 199 202 196 175 168 175 187 189 200 211 208 209 193 214 255 241 189 173 169 159 162 164 181 127 111 75 56 48 32 26